Weather History for Shoreham, United Kingdom

Change the Weather History Date:

Tuesday, November 5, 2013

  Actual Average Record
Temperature  
Mean Temperature 45 °F -  
Max Temperature 55 °F 49 °F 59 °F (1997)
Min Temperature 35 °F 42 °F 33 °F (2006)
Degree Days  
Heating Degree Days 20    
Moisture  
Dew Point 45 °F    
Average Humidity 78    
Maximum Humidity 94    
Minimum Humidity 57    
Precipitation  
Precipitation 0.03 in - - ()
Sea Level Pressure  
Sea Level Pressure 29.38 in    
Wind  
Wind Speed 11 mph ()    
Max Wind Speed 22 mph    
Max Gust Speed 33 mph    
Visibility 6.2 miles    
Events      
Averages and records for this station are not official NWS values.
T = Trace of Precipitation, MM = Missing Value Source: Averaged Metar Reports

Daily Weather History Graph

Daily Weather History Graph

Search for Another Location

Airport:

Trip Planner

Search our weather history database for the weather conditions in past years. The results will help you decide how hot, cold, wet, or windy it might be!

Date:

Astronomy

Nov. 05, 2013 Rise Set
Actual Time 6:59 AM GMT 4:28 PM GMT
Civil Twilight 6:24 AM GMT 5:03 PM GMT
Nautical Twilight 5:45 AM GMT 5:43 PM GMT
Astronomical Twilight 5:07 AM GMT 6:21 PM GMT
Moon 9:08 AM GMT (11/5) 6:05 PM GMT (11/5)
Length of Visible Light 10h 39m
Length of Day
9h 28m
Waxing Crescent, 5% of the Moon is Illuminated
Nov 5
Waxing Crescent
Nov 10
First Quarter
Nov 17
Full
Nov 25
Last Quarter
Dec 3
New

Hourly Weather History & Observations

Time (GMT) Temp. Dew Point Humidity Pressure Visibility Wind Dir Wind Speed Gust Speed Precip Events Conditions
12:00 AM 41 °F 38 °F 86% 29.52 in - ESE 3.5 mph - -  
3:00 AM 50 °F 48 °F 92% 29.43 in - SW 13.8 mph - -  
6:00 AM 52 °F 50 °F 89% 29.35 in - West 9.2 mph - -  
9:00 AM 51 °F 50 °F 94% 29.34 in - West 6.9 mph - -  
10:20 AM 51.8 °F 50.0 °F 94% 29.30 in 6.2 mi West 8.1 mph - N/A   Light Drizzle
10:50 AM 51.8 °F 50.0 °F 94% 29.30 in 6.2 mi West 10.4 mph - N/A   Mostly Cloudy
11:20 AM 51.8 °F 50.0 °F 94% 29.30 in 6.2 mi WNW 10.4 mph - N/A   Mostly Cloudy
11:50 AM 55.4 °F 51.8 °F 88% 29.30 in 6.2 mi West 15.0 mph 26.5 mph N/A   Mostly Cloudy
12:00 PM 55 °F 51 °F 84% 29.30 in - West 18.4 mph - -  
12:20 PM 55.4 °F 48.2 °F 77% 29.30 in 6.2 mi West 19.6 mph 31.1 mph N/A   Scattered Clouds
12:50 PM 55.4 °F 46.4 °F 72% 29.30 in 6.2 mi WNW 18.4 mph 29.9 mph N/A   Partly Cloudy
1:20 PM 55.4 °F 44.6 °F 67% 29.30 in 6.2 mi WNW 20.7 mph 33.4 mph N/A   Scattered Clouds
1:50 PM 53.6 °F 42.8 °F 67% 29.30 in 6.2 mi West 19.6 mph 31.1 mph N/A   Mostly Cloudy
2:20 PM 53.6 °F 42.8 °F 67% 29.33 in 6.2 mi WNW 19.6 mph 31.1 mph N/A   Scattered Clouds
2:50 PM 53.6 °F 42.8 °F 67% 29.36 in 6.2 mi WNW 21.9 mph 33.4 mph N/A   Partly Cloudy
3:00 PM 53 °F 42 °F 57% 29.37 in - WNW 20.7 mph - -  
3:20 PM 51.8 °F 42.8 °F 71% 29.39 in 6.2 mi WNW 15.0 mph 26.5 mph N/A   Mostly Cloudy
3:50 PM 51.8 °F 42.8 °F 71% 29.39 in 6.2 mi West 13.8 mph - N/A   Mostly Cloudy
4:20 PM 51.8 °F 42.8 °F 71% 29.42 in 6.2 mi West 12.7 mph - N/A   Partly Cloudy
4:50 PM 51.8 °F 42.8 °F 71% 29.42 in 6.2 mi West 11.5 mph - N/A   Scattered Clouds
5:20 PM 50.0 °F 42.8 °F 76% 29.44 in 6.2 mi West 13.8 mph - N/A   Scattered Clouds
5:50 PM 50.0 °F 42.8 °F 76% 29.44 in 6.2 mi West 10.4 mph - N/A   Scattered Clouds
6:00 PM 51 °F 43 °F 67% 29.46 in - West 11.5 mph - -  
6:20 PM 51.8 °F 44.6 °F 76% 29.47 in 6.2 mi West 10.4 mph - N/A   Scattered Clouds
6:50 PM 50.0 °F 44.6 °F 82% 29.44 in 6.2 mi West 12.7 mph - N/A   Partly Cloudy
9:00 PM 51 °F 44 °F 71% 29.52 in - West 11.5 mph - -